• In Hungary
  • List of Countries
  • For 7 days
  • Water Temperature
  • Satellite Maps
  • Weather Map
  • News
  • Weather Widgets
  • user-avatar
    Login

    Hourly Weather Marialva

    Today, 15 November, Thursday

    Time Temperature Precipitation Wind Pressure Humidity
    00:00 +21°C° 0 mm 0 mps 702 mmHg 89%
    01:00 +21°C° 0 mm 0 mps 702 mmHg 90%
    02:00 +21°C° 0 mm 0 mps 702 mmHg 91%
    03:00 +23°C° 0 mm 1 mps 702 mmHg 93%
    04:00 +22°C° 0 mm 1 mps 702 mmHg 94%
    05:00 +22°C° 0 mm 1 mps 702 mmHg 95%
    06:00 +22°C° 0 mm 1 mps 702 mmHg 96%
    07:00 +24°C° 0.3 mm 1 mps 702 mmHg 88%
    08:00 +26°C° 0.3 mm 1 mps 703 mmHg 80%
    09:00 +28°C° 0.3 mm 1 mps 703 mmHg 72%
    10:00 +29°C° 0.7 mm 1 mps 703 mmHg 68%
    11:00 +30°C° 0.7 mm 2 mps 703 mmHg 63%
    12:00 +31°C° 0.7 mm 2 mps 703 mmHg 59%
    13:00 +31°C° 0.3 mm 2 mps 703 mmHg 58%
    14:00 +32°C° 0.3 mm 2 mps 702 mmHg 58%
    15:00 +32°C° 0.3 mm 2 mps 702 mmHg 57%
    16:00 +31°C° 0.4 mm 2 mps 702 mmHg 61%
    17:00 +30°C° 0.4 mm 2 mps 701 mmHg 65%
    18:00 +30°C° 0.4 mm 1 mps 701 mmHg 68%
    19:00 +28°C° 0.1 mm 1 mps 701 mmHg 72%
    20:00 +27°C° 0.1 mm 1 mps 702 mmHg 76%
    21:00 +26°C° 0.1 mm 1 mps 702 mmHg 79%
    22:00 +25°C° 0 mm 1 mps 702 mmHg 81%
    23:00 +25°C° 0 mm 1 mps 702 mmHg 83%

    Tomorrow, 16 November, Friday

    Time Temperature Precipitation Wind Pressure Humidity
    00:00 +25°C° 0 mm 1 mps 703 mmHg 84%
    01:00 +24°C° 0 mm 2 mps 703 mmHg 85%
    02:00 +22°C° 0 mm 3 mps 703 mmHg 87%
    03:00 +22°C° 0 mm 3 mps 703 mmHg 88%
    04:00 +21°C° 0 mm 4 mps 703 mmHg 87%
    05:00 +21°C° 0 mm 4 mps 703 mmHg 87%
    06:00 +20°C° 0 mm 4 mps 704 mmHg 86%
    07:00 +22°C° 0 mm 4 mps 704 mmHg 80%
    08:00 +25°C° 0 mm 4 mps 705 mmHg 74%
    09:00 +26°C° 0 mm 5 mps 706 mmHg 67%
    10:00 +28°C° 0 mm 4 mps 706 mmHg 62%
    11:00 +30°C° 0 mm 4 mps 706 mmHg 57%
    12:00 +33°C° 0 mm 4 mps 705 mmHg 52%
    13:00 +33°C° 0 mm 4 mps 705 mmHg 50%
    14:00 +34°C° 0 mm 3 mps 704 mmHg 48%
    15:00 +35°C° 0 mm 3 mps 704 mmHg 46%
    16:00 +34°C° 0 mm 3 mps 703 mmHg 50%
    17:00 +33°C° 0 mm 3 mps 703 mmHg 54%
    18:00 +31°C° 0 mm 2 mps 703 mmHg 58%
    19:00 +29°C° 0 mm 3 mps 703 mmHg 61%
    20:00 +28°C° 0 mm 4 mps 704 mmHg 65%
    21:00 +27°C° 0 mm 4 mps 704 mmHg 68%
    22:00 +26°C° 0 mm 5 mps 704 mmHg 65%
    23:00 +24°C° 0 mm 6 mps 705 mmHg 62%

    Day after tomorrow, 17 November, Saturday

    Time Temperature Precipitation Wind Pressure Humidity
    00:00 +23°C° 0 mm 6 mps 705 mmHg 59%
    01:00 +22°C° 0 mm 6 mps 705 mmHg 59%
    02:00 +21°C° 0 mm 6 mps 704 mmHg 58%
    03:00 +20°C° 0 mm 6 mps 704 mmHg 57%
    04:00 +19°C° 0 mm 6 mps 704 mmHg 59%
    05:00 +19°C° 0 mm 6 mps 704 mmHg 61%
    06:00 +19°C° 0 mm 5 mps 704 mmHg 63%
    07:00 +21°C° 0 mm 6 mps 705 mmHg 61%
    08:00 +23°C° 0 mm 6 mps 705 mmHg 59%
    09:00 +24°C° 0 mm 6 mps 706 mmHg 57%
    10:00 +27°C° 0 mm 6 mps 706 mmHg 54%
    11:00 +29°C° 0 mm 6 mps 706 mmHg 51%
    12:00 +32°C° 0 mm 6 mps 706 mmHg 48%
    13:00 +33°C° 0 mm 5 mps 705 mmHg 48%
    14:00 +33°C° 0 mm 5 mps 704 mmHg 47%
    15:00 +34°C° 0 mm 5 mps 704 mmHg 46%
    16:00 +33°C° 0 mm 4 mps 703 mmHg 50%
    17:00 +31°C° 0 mm 3 mps 703 mmHg 55%
    18:00 +30°C° 0 mm 2 mps 702 mmHg 59%
    19:00 +29°C° 0 mm 3 mps 702 mmHg 62%
    20:00 +28°C° 0 mm 3 mps 703 mmHg 65%
    21:00 +27°C° 0 mm 4 mps 703 mmHg 68%
    22:00 +26°C° 0 mm 4 mps 703 mmHg 70%
    23:00 +26°C° 0 mm 4 mps 703 mmHg 72%

    18 November, Sunday

    Time Temperature Precipitation Wind Pressure Humidity
    00:00 +25°C° 0 mm 4 mps 703 mmHg 74%
    01:00 +25°C° 0 mm 4 mps 703 mmHg 77%
    02:00 +24°C° 0 mm 3 mps 702 mmHg 79%
    03:00 +24°C° 0 mm 3 mps 702 mmHg 82%
    04:00 +24°C° 0 mm 3 mps 702 mmHg 83%
    05:00 +22°C° 0 mm 3 mps 702 mmHg 84%
    06:00 +22°C° 0 mm 3 mps 702 mmHg 85%
    07:00 +24°C° 0 mm 3 mps 702 mmHg 81%
    08:00 +25°C° 0 mm 4 mps 703 mmHg 78%
    09:00 +26°C° 0 mm 4 mps 704 mmHg 75%
    10:00 +27°C° 0 mm 4 mps 703 mmHg 73%
    11:00 +27°C° 0 mm 3 mps 703 mmHg 72%
    12:00 +28°C° 0 mm 2 mps 703 mmHg 70%
    13:00 +27°C° 1.8 mm 2 mps 703 mmHg 72%
    14:00 +27°C° 1.8 mm 2 mps 702 mmHg 74%
    15:00 +27°C° 1.8 mm 2 mps 702 mmHg 76%
    16:00 +26°C° 1.1 mm 2 mps 702 mmHg 79%
    17:00 +26°C° 1.1 mm 2 mps 702 mmHg 82%
    18:00 +25°C° 1.1 mm 2 mps 701 mmHg 85%
    19:00 +24°C° 0 mm 2 mps 702 mmHg 86%
    20:00 +24°C° 0 mm 1 mps 702 mmHg 88%
    21:00 +23°C° 0 mm 1 mps 702 mmHg 89%
    22:00 +22°C° 0 mm 1 mps 702 mmHg 90%
    23:00 +21°C° 0 mm 2 mps 703 mmHg 91%

    19 November, Monday

    Time Temperature Precipitation Wind Pressure Humidity
    00:00 +21°C° 0 mm 2 mps 703 mmHg 92%
    01:00 +20°C° 0 mm 2 mps 702 mmHg 92%
    02:00 +20°C° 0 mm 2 mps 702 mmHg 92%
    03:00 +20°C° 0 mm 2 mps 701 mmHg 92%
    04:00 +20°C° 0 mm 2 mps 701 mmHg 92%
    05:00 +20°C° 0 mm 2 mps 701 mmHg 92%
    06:00 +20°C° 0 mm 2 mps 702 mmHg 92%
    07:00 +23°C° 0 mm 2 mps 702 mmHg 85%
    08:00 +24°C° 0 mm 3 mps 703 mmHg 78%
    09:00 +26°C° 0 mm 3 mps 704 mmHg 70%
    10:00 +28°C° 0.2 mm 3 mps 704 mmHg 66%
    11:00 +29°C° 0.2 mm 3 mps 704 mmHg 62%
    12:00 +30°C° 0.2 mm 3 mps 704 mmHg 58%
    13:00 +30°C° 0.2 mm 4 mps 703 mmHg 58%
    14:00 +29°C° 0.2 mm 5 mps 703 mmHg 58%
    15:00 +29°C° 0.2 mm 5 mps 702 mmHg 58%
    16:00 +27°C° 0 mm 5 mps 702 mmHg 62%
    17:00 +26°C° 0 mm 5 mps 702 mmHg 65%
    18:00 +23°C° 0 mm 5 mps 702 mmHg 69%
    19:00 +22°C° 0 mm 5 mps 703 mmHg 70%
    20:00 +21°C° 0 mm 5 mps 703 mmHg 72%
    21:00 +20°C° 0 mm 5 mps 704 mmHg 73%
    22:00 +19°C° 0 mm 5 mps 704 mmHg 73%
    23:00 +19°C° 0 mm 5 mps 704 mmHg 74%

    20 November, Tuesday

    Time Temperature Precipitation Wind Pressure Humidity
    00:00 +17°C° 0 mm 5 mps 705 mmHg 74%
    01:00 +17°C° 0 mm 5 mps 704 mmHg 74%
    02:00 +17°C° 0 mm 4 mps 704 mmHg 75%
    03:00 +17°C° 0 mm 4 mps 704 mmHg 75%
    04:00 +17°C° 0 mm 4 mps 704 mmHg 76%
    05:00 +17°C° 0 mm 4 mps 704 mmHg 77%
    06:00 +15°C° 0 mm 4 mps 705 mmHg 78%
    07:00 +18°C° 0 mm 4 mps 705 mmHg 73%
    08:00 +20°C° 0 mm 4 mps 706 mmHg 67%
    09:00 +22°C° 0 mm 4 mps 706 mmHg 62%
    10:00 +25°C° 0 mm 4 mps 706 mmHg 56%
    11:00 +27°C° 0 mm 4 mps 706 mmHg 50%
    12:00 +29°C° 0 mm 3 mps 706 mmHg 44%
    13:00 +30°C° 0 mm 3 mps 705 mmHg 42%
    14:00 +30°C° 0 mm 3 mps 705 mmHg 40%
    15:00 +31°C° 0 mm 3 mps 704 mmHg 37%
    16:00 +30°C° 0 mm 2 mps 704 mmHg 42%
    17:00 +29°C° 0 mm 2 mps 704 mmHg 47%
    18:00 +28°C° 0 mm 2 mps 704 mmHg 52%
    19:00 +26°C° 0 mm 3 mps 704 mmHg 56%
    20:00 +23°C° 0 mm 4 mps 704 mmHg 59%
    21:00 +22°C° 0 mm 5 mps 705 mmHg 63%
    22:00 +21°C° 0 mm 5 mps 705 mmHg 63%
    23:00 +20°C° 0 mm 5 mps 705 mmHg 63%
    Show more